Simultaneous Nadir Overpasses (SNOs) Predictions

Prediction of SNOs over PacNW region [( 10.00, 139.50) to ( 22.70, 165.60)] between AQUA and NPP Satellites:

Table of predicted SNOs over PacNW region for the next 30.0 days since TLE Epoch: 8/23/2014
Index Date (AQUA) Time (AQUA) AQUA Lat,Lon Date (NPP) Time (NPP) NPP Lat,Lon Distance(km) Time Diff (sec)
1 08/25/2014 15:32:07 10.02, 152.33 08/25/2014 15:29:09 9.98, 152.51 19.76 178
2 08/31/2014 02:38:56 10.12, 162.70 08/31/2014 02:41:05 9.84, 161.47 138.05 129
3 09/02/2014 16:19:16 17.79, 141.72 09/02/2014 16:17:55 17.83, 141.63 10.06 81
4 09/08/2014 03:28:12 10.09, 150.39 09/08/2014 03:31:40 8.36, 149.10 238.74 208
5 09/10/2014 15:31:46 10.03, 152.41 09/10/2014 15:29:37 10.01, 152.47 7.50 129
6 09/16/2014 02:38:31 10.08, 162.80 09/16/2014 02:41:33 9.80, 161.44 152.04 182
7 09/18/2014 16:17:57 20.98, 142.56 09/18/2014 16:17:29 21.01, 142.37 19.21 28




NCC Satellite Simultaneous Nadir Overpasses (SNOs) Prediction Service
